Date String (YYYY-MM-DD hh:mm:ss) UTC,Instrument flags,Ambient pressure (hPa),Sample flow (lpm),Bypass flow (lpm),Sample temperature (°C),Ambient temperature (°C),ASC tube jacket temperature (°C),LED temperature (°C),Box temperature (°C),Sample RH (%),Span deviation,Mass concentration (μg/m³),Mass concentration (μg/m³),Mass concentration (μg/m³)
DateTimeUTC,F1_M11,P_M11,Q1_M11,Q2_M11,T1_M11,T2_M11,T3_M11,T4_M11,T5_M11,U1_M11,ZSPAN_M11,X0_M11,X2_M11,X1_M11
2022-07-06 04:00:00,,0826.9,5.00,0.00,29.4,27.7,00.0,38.2,31.2,26.7,0000.0,0002.65,0001.84,0001.48
2022-07-06 04:01:00,,0826.9,5.00,0.00,29.4,27.9,00.0,38.2,31.3,26.4,0000.0,0002.64,0001.83,0001.47
2022-07-06 04:02:00,,0826.9,5.00,0.00,29.4,28.0,00.0,38.2,31.3,26.5,0000.0,0002.79,0001.85,0001.46
2022-07-06 04:03:00,,0827.0,5.00,0.00,29.4,28.1,00.0,38.2,31.4,26.9,0000.0,0002.76,0001.83,0001.46
2022-07-06 04:04:00,,0826.9,4.99,0.00,29.5,28.2,00.0,38.2,31.4,27.3,0000.0,0002.71,0001.81,0001.44
2022-07-06 04:05:00,,0827.2,4.99,0.00,29.5,28.3,00.0,38.2,31.5,27.2,0000.0,0003.29,0001.78,0001.43
2022-07-06 04:06:00,,0826.9,5.00,0.00,29.5,28.4,00.0,38.2,31.5,27.0,0000.0,0003.27,0001.74,0001.42
2022-07-06 04:07:00,,0827.0,5.01,0.00,29.6,28.5,00.0,38.3,31.5,26.4,0000.0,0003.34,0001.77,0001.43
2022-07-06 04:08:00,,0827.0,5.00,0.00,29.6,28.6,00.0,38.3,31.6,26.6,0000.0,0003.46,0001.80,0001.43
2022-07-06 04:09:00,,0827.0,4.99,0.00,29.6,28.6,00.0,38.3,31.6,26.5,0000.0,0003.46,0001.80,0001.42
2022-07-06 04:10:00,,0827.0,5.01,0.00,29.7,28.7,00.0,38.3,31.7,26.8,0000.0,0003.45,0001.81,0001.43
2022-07-06 04:11:00,,0827.0,5.01,0.00,29.7,28.2,00.0,38.3,31.6,27.2,0000.0,0003.37,0001.78,0001.43
2022-07-06 04:12:00,,0827.0,5.00,0.00,29.7,27.6,00.0,38.3,31.5,27.2,0000.0,0003.40,0001.79,0001.43
2022-07-06 04:13:00,,0827.2,5.01,0.00,29.6,27.4,00.0,38.3,31.5,27.2,0000.0,0003.25,0001.76,0001.43
2022-07-06 04:14:00,,0827.0,5.00,0.00,29.6,27.4,00.0,38.3,31.4,27.6,0000.0,0003.39,0001.75,0001.42
2022-07-06 04:15:00,,0827.0,4.99,0.00,29.5,27.6,00.0,38.3,31.4,27.2,0000.0,0004.30,0001.78,0001.43
2022-07-06 04:16:00,,0827.0,5.00,0.00,29.5,27.7,00.0,38.3,31.4,26.8,0000.0,0003.77,0001.79,0001.43
2022-07-06 04:17:00,,0827.0,4.99,0.00,29.5,27.8,00.0,38.3,31.4,26.7,0000.0,0004.11,0001.82,0001.43
2022-07-06 04:18:00,,0827.1,5.00,0.00,29.5,28.0,00.0,38.3,31.4,27.1,0000.0,0004.24,0001.79,0001.41
2022-07-06 04:19:00,,0826.9,5.00,0.00,29.5,28.1,00.0,38.3,31.4,27.3,0000.0,0004.11,0001.75,0001.41
2022-07-06 04:20:00,,0827.1,5.01,0.00,29.6,28.2,00.0,38.3,31.5,27.1,0000.0,0004.08,0001.72,0001.39
2022-07-06 04:21:00,,0827.0,5.00,0.00,29.6,28.3,00.0,38.3,31.5,26.5,0000.0,0004.14,0001.73,0001.37
2022-07-06 04:22:00,,0827.1,5.00,0.00,29.6,28.4,00.0,38.3,31.6,26.1,0000.0,0004.11,0001.71,0001.33
2022-07-06 04:23:00,,0827.0,5.00,0.00,29.6,28.5,00.0,38.3,31.6,25.9,0000.0,0004.11,0001.67,0001.31
2022-07-06 04:24:00,,0827.0,5.00,0.00,29.7,28.6,00.0,38.4,31.7,25.6,0000.0,0004.15,0001.66,0001.30
2022-07-06 04:25:00,,0827.0,5.01,0.00,29.7,28.6,00.0,38.4,31.7,25.6,0000.0,0003.93,0001.64,0001.27
2022-07-06 04:26:00,,0827.1,5.00,0.00,29.7,28.2,00.0,38.4,31.7,25.3,0000.0,0002.99,0001.58,0001.25
2022-07-06 04:27:00,,0827.0,5.00,0.00,29.7,27.6,00.0,38.3,31.5,25.5,0000.0,0002.77,0001.51,0001.22
2022-07-06 04:28:00,,0827.0,4.99,0.00,29.7,27.5,00.0,38.3,31.5,26.1,0000.0,0002.70,0001.49,0001.20
2022-07-06 04:29:00,,0827.0,5.00,0.00,29.6,27.5,00.0,38.3,31.4,26.0,0000.0,0002.58,0001.49,0001.18
2022-07-06 04:30:00,,0827.0,5.00,0.00,29.5,27.6,00.0,38.3,31.3,25.8,0000.0,0002.62,0001.49,0001.16
2022-07-06 04:31:00,,0827.1,5.00,0.00,29.5,27.7,00.0,38.3,31.4,25.7,0000.0,0002.62,0001.47,0001.14
2022-07-06 04:32:00,,0827.0,5.00,0.00,29.5,27.8,00.0,38.3,31.4,25.6,0000.0,0002.55,0001.42,0001.12
2022-07-06 04:33:00,,0827.1,5.00,0.00,29.5,28.0,00.0,38.3,31.4,25.4,0000.0,0002.61,0001.42,0001.11
2022-07-06 04:34:00,,0827.0,5.00,0.00,29.5,28.1,00.0,38.3,31.4,25.3,0000.0,0002.90,0001.41,0001.09
2022-07-06 04:35:00,,0826.9,5.01,0.00,29.6,28.2,00.0,38.3,31.5,25.5,0000.0,0002.87,0001.38,0001.07
2022-07-06 04:36:00,,0826.9,5.01,0.00,29.6,28.3,00.0,38.3,31.5,25.2,0000.0,0002.93,0001.40,0001.07
2022-07-06 04:37:00,,0826.9,5.01,0.00,29.6,28.4,00.0,38.3,31.5,25.0,0000.0,0003.05,0001.43,0001.06
2022-07-06 04:38:00,,0826.9,4.99,0.00,29.6,28.5,00.0,38.4,31.6,25.1,0000.0,0003.57,0001.43,0001.04
2022-07-06 04:39:00,,0826.9,4.99,0.00,29.7,28.5,00.0,38.4,31.6,25.2,0000.0,0003.57,0001.41,0001.04
2022-07-06 04:40:00,,0827.0,4.99,0.00,29.7,28.6,00.0,38.4,31.7,25.0,0000.0,0003.31,0001.37,0001.04
2022-07-06 04:41:00,,0827.2,5.00,0.00,29.7,28.4,00.0,38.4,31.7,24.9,0000.0,0003.31,0001.37,0001.05
2022-07-06 04:42:00,,0827.1,5.00,0.00,29.7,27.7,00.0,38.3,31.6,24.9,0000.0,0003.56,0001.38,0001.05
2022-07-06 04:43:00,,0827.0,5.00,0.00,29.7,27.4,00.0,38.3,31.5,25.0,0000.0,0003.51,0001.36,0001.05
2022-07-06 04:44:00,,0827.0,4.98,0.00,29.6,27.4,00.0,38.3,31.4,25.2,0000.0,0003.45,0001.35,0001.05
2022-07-06 04:45:00,,0827.1,4.99,0.00,29.6,27.5,00.0,38.3,31.3,25.6,0000.0,0003.14,0001.34,0001.05
2022-07-06 04:46:00,,0827.0,5.01,0.00,29.5,27.6,00.0,38.3,31.3,25.3,0000.0,0003.05,0001.39,0001.06
2022-07-06 04:47:00,,0827.0,5.00,0.00,29.5,27.8,00.0,38.3,31.4,25.3,0000.0,0003.04,0001.38,0001.05
2022-07-06 04:48:00,,0827.0,5.01,0.00,29.5,27.9,00.0,38.3,31.4,25.5,0000.0,0003.03,0001.37,0001.05
2022-07-06 04:49:00,,0827.0,5.00,0.00,29.5,28.0,00.0,38.3,31.4,25.5,0000.0,0002.76,0001.37,0001.05
2022-07-06 04:50:00,,0827.3,5.00,0.00,29.6,28.2,00.0,38.3,31.5,25.3,0000.0,0002.16,0001.34,0001.05
2022-07-06 04:51:00,,0827.3,5.00,0.00,29.6,28.3,00.0,38.3,31.5,25.1,0000.0,0002.16,0001.33,0001.04
2022-07-06 04:52:00,,0827.0,5.01,0.00,29.6,28.4,00.0,38.4,31.6,25.1,0000.0,0002.13,0001.31,0001.02
2022-07-06 04:53:00,,0827.0,5.01,0.00,29.6,28.5,00.0,38.4,31.6,25.1,0000.0,0001.79,0001.26,0001.02
2022-07-06 04:54:00,,0827.1,4.99,0.00,29.7,28.6,00.0,38.4,31.6,25.1,0000.0,0001.83,0001.27,0001.01
2022-07-06 04:55:00,,0827.0,5.00,0.00,29.7,28.6,00.0,38.4,31.7,24.9,0000.0,0001.80,0001.27,0001.02
2022-07-06 04:56:00,,0827.1,5.00,0.00,29.7,28.6,00.0,38.4,31.7,24.8,0000.0,0001.81,0001.27,0001.01
2022-07-06 04:57:00,,0827.1,5.00,0.00,29.7,28.1,00.0,38.4,31.7,25.0,0000.0,0002.58,0001.24,0001.01
2022-07-06 04:58:00,,0827.2,4.99,0.00,29.7,27.2,00.0,38.3,31.5,25.4,0000.0,0002.65,0001.23,0001.01
2022-07-06 04:59:00,,0827.2,5.01,0.00,29.7,26.8,00.0,38.3,31.4,25.6,0000.0,0002.65,0001.23,0001.01
